Antwerp, Belgium

9:17 AM CEST on April 27, 2018 (GMT +0200)
Deurne

Weather History for EBAW - November, 2012

Change the Weather History Date:

Tuesday, November 27, 2012

  Actual Average Record
Temperature  
Mean Temperature 44 °F -  
Max Temperature 48 °F 43 °F 60 °F (2006)
Min Temperature 39 °F 34 °F 26 °F (2010)
Degree Days  
Heating Degree Days 22    
Moisture  
Dew Point 41 °F    
Average Humidity 81    
Maximum Humidity 100    
Minimum Humidity 60    
Precipitation  
Precipitation 0.00 in - - ()
Sea Level Pressure  
Sea Level Pressure 29.62 in    
Wind  
Wind Speed 7 mph ()    
Max Wind Speed 12 mph    
Max Gust Speed -    
Visibility 6.9 miles    
Events Rain    
Averages and records for this station are not official NWS values.
T = Trace of Precipitation, MM = Missing Value Source: Averaged Metar Reports

Daily Weather History Graph

Daily Weather History Graph

Search for Another Location

Airport or City:

Astronomy

Nov. 27, 2012 Rise Set
Actual Time 8:18 AM CET 4:40 PM CET
Civil Twilight 7:40 AM CET 5:18 PM CET
Nautical Twilight 6:58 AM CET 6:00 PM CET
Astronomical Twilight 6:19 AM CET 6:40 PM CET
Moon 4:04 PM CET 7:05 AM CET
Length of Visible Light 9h 38m
Length of Day
8h 21m
Waxing Gibbous, 99% of the Moon is Illuminated
Nov 27
Waxing Gibbous
Nov 28
Full
Dec 6
Last Quarter
Dec 13
New
Dec 20
First Quarter

Hourly Weather History & Observations

Time (CET) Temp. Windchill Dew Point Humidity Pressure Visibility Wind Dir Wind Speed Gust Speed Precip Events Conditions
12:20 AM 50.0 °F - 39.2 °F 66% 29.56 in 6.2 mi SSW 11.5 mph - N/A   Overcast
12:50 AM 48.2 °F - 39.2 °F 71% 29.56 in 6.2 mi SSW 9.2 mph - N/A   Mostly Cloudy
1:00 AM 49 °F - 40 °F 61% 29.57 in 22 mi SSW 8.9 mph - -   Clear
1:20 AM 48.2 °F - 39.2 °F 71% 29.56 in 6.2 mi SSW 9.2 mph - N/A   Overcast
1:50 AM 48.2 °F - 39.2 °F 71% 29.56 in 6.2 mi SSW 9.2 mph - N/A   Overcast
2:20 AM 48.2 °F - 41.0 °F 76% 29.53 in 6.2 mi SSW 8.1 mph - N/A   Drizzle
2:50 AM 48.2 °F - 41.0 °F 76% 29.53 in 6.2 mi SSW 11.5 mph - N/A   Overcast
3:20 AM 48.2 °F - 41.0 °F 76% 29.56 in 6.2 mi SSW 9.2 mph - N/A   Overcast
3:50 AM 48.2 °F - 41.0 °F 76% 29.56 in 6.2 mi South 9.2 mph - N/A Rain Light Rain
4:00 AM 47 °F - 42 °F 75% 29.56 in 7 mi South 8.9 mph - - Rain Drizzle
4:20 AM 46.4 °F 42.4 °F 42.8 °F 87% 29.56 in 6.2 mi South 8.1 mph - N/A Rain Light Rain
4:50 AM 46.4 °F 41.9 °F 42.8 °F 87% 29.56 in 6.2 mi SSW 9.2 mph - N/A Rain Light Rain Showers
5:20 AM 46.4 °F 41.9 °F 41.0 °F 81% 29.56 in 6.2 mi SSW 9.2 mph - N/A Rain Light Rain Showers
5:50 AM 46.4 °F 41.5 °F 41.0 °F 81% 29.56 in 6.2 mi SSW 10.4 mph - N/A   Mostly Cloudy
6:20 AM 46.4 °F 42.4 °F 41.0 °F 81% 29.56 in 6.2 mi South 8.1 mph - N/A   Scattered Clouds
6:50 AM 46.4 °F 42.4 °F 41.0 °F 81% 29.56 in 6.2 mi South 8.1 mph - N/A   Scattered Clouds
7:00 AM 46 °F - 41 °F 77% 29.57 in 16 mi South 8.9 mph - - Rain Light Rain Showers
7:20 AM 44.6 °F 40.2 °F 41.0 °F 87% 29.56 in 6.2 mi South 8.1 mph - N/A   Scattered Clouds
7:50 AM 44.6 °F 40.7 °F 41.0 °F 87% 29.56 in 6.2 mi South 6.9 mph - N/A   Mostly Cloudy
8:20 AM 44.6 °F 40.2 °F 41.0 °F 87% 29.59 in 6.2 mi South 8.1 mph - N/A   Scattered Clouds
8:50 AM 44.6 °F 40.7 °F 41.0 °F 87% 29.59 in 6.2 mi South 6.9 mph - N/A   Partly Cloudy
9:20 AM 46.4 °F 41.5 °F 41.0 °F 81% 29.59 in 6.2 mi South 10.4 mph - N/A   Partly Cloudy
9:50 AM 46.4 °F 41.9 °F 41.0 °F 81% 29.59 in 6.2 mi South 9.2 mph - N/A   Partly Cloudy
10:00 AM 46 °F - 40 °F 74% 29.62 in 16 mi South 8.9 mph - -   Mostly Cloudy
10:20 AM 46.4 °F 41.9 °F 41.0 °F 81% 29.59 in 6.2 mi South 9.2 mph - N/A   Mostly Cloudy
10:50 AM 46.4 °F 41.9 °F 39.2 °F 76% 29.62 in 6.2 mi South 9.2 mph - N/A   Scattered Clouds
11:20 AM 46.4 °F 41.5 °F 39.2 °F 76% 29.62 in 6.2 mi South 10.4 mph - N/A   Mostly Cloudy
11:50 AM 48.2 °F - 39.2 °F 71% 29.62 in 6.2 mi South 6.9 mph - N/A   Mostly Cloudy
12:20 PM 48.2 °F - 39.2 °F 71% 29.62 in 6.2 mi South 10.4 mph - N/A   Mostly Cloudy
12:50 PM 48.2 °F - 39.2 °F 71% 29.62 in 6.2 mi South 11.5 mph - N/A   Mostly Cloudy
1:00 PM 48 °F - 38 °F 60% 29.63 in 19 mi South 11.2 mph - -   Mostly Cloudy
1:20 PM 48.2 °F - 39.2 °F 71% 29.62 in 6.2 mi South 5.8 mph - N/A   Mostly Cloudy
1:50 PM 48.2 °F - 39.2 °F 71% 29.62 in 6.2 mi SSW 6.9 mph - N/A   Mostly Cloudy
2:20 PM 48.2 °F - 39.2 °F 71% 29.62 in 6.2 mi South 5.8 mph - N/A   Mostly Cloudy
2:50 PM 46.4 °F 44.3 °F 39.2 °F 76% 29.62 in 6.2 mi South 4.6 mph - N/A   Mostly Cloudy
3:20 PM 46.4 °F 42.9 °F 41.0 °F 81% 29.62 in 6.2 mi South 6.9 mph - N/A   Mostly Cloudy
3:50 PM 46.4 °F 44.3 °F 41.0 °F 81% 29.62 in 6.2 mi South 4.6 mph - N/A   Mostly Cloudy
4:00 PM 46 °F - 41 °F 77% 29.65 in 19 mi South 4.5 mph - -   Mostly Cloudy
4:20 PM 46.4 °F 44.3 °F 42.8 °F 87% 29.65 in 6.2 mi SE 4.6 mph - N/A   Partly Cloudy
4:50 PM 44.6 °F 43.1 °F 42.8 °F 93% 29.65 in 6.2 mi SE 3.5 mph - N/A   Partly Cloudy
5:20 PM 46.4 °F - 41.0 °F 81% 29.65 in 6.2 mi Variable 2.3 mph - N/A   Partly Cloudy
5:50 PM 44.6 °F 43.1 °F 41.0 °F 87% 29.65 in - ESE 3.5 mph - N/A   Clear
6:20 PM 42.8 °F - 41.0 °F 93% 29.65 in - ESE 2.3 mph - N/A   Clear
6:50 PM 42.8 °F 41.1 °F 41.0 °F 93% 29.68 in 6.2 mi ESE 3.5 mph - N/A   Scattered Clouds
7:00 PM 42 °F - 41 °F 94% 29.68 in 7 mi ESE 4.5 mph - -   Mostly Cloudy
7:20 PM 41.0 °F 39.0 °F 41.0 °F 100% 29.68 in 6.2 mi ESE 3.5 mph - N/A   Scattered Clouds
7:50 PM 39.2 °F 35.9 °F 37.4 °F 93% 29.68 in 5.0 mi SE 4.6 mph - N/A   Partly Cloudy
8:20 PM 41.0 °F - 39.2 °F 93% 29.68 in 5.0 mi Variable 2.3 mph - N/A   Partly Cloudy
8:50 PM 41.0 °F - 41.0 °F 100% 29.68 in 4.3 mi Variable 1.2 mph - N/A   Partly Cloudy
9:20 PM 42.8 °F - 41.0 °F 93% 29.71 in 5.6 mi Variable 1.2 mph - N/A   Partly Cloudy
9:50 PM 42.8 °F - 41.0 °F 93% 29.71 in 3.7 mi Variable 1.2 mph - N/A   Partly Cloudy
10:00 PM 42 °F - 41 °F 93% 29.71 in 4 mi Calm Calm - -   Mostly Cloudy
10:20 PM 44.6 °F - 41.0 °F 87% 29.71 in 5.6 mi Calm Calm - N/A   Partly Cloudy
10:50 PM 44.6 °F - 41.0 °F 87% 29.71 in - Variable 1.2 mph - N/A   Clear
11:20 PM 44.6 °F - 41.0 °F 87% 29.71 in 6.2 mi Variable 1.2 mph - N/A   Mostly Cloudy
11:50 PM 42.8 °F - 41.0 °F 93% 29.71 in 4.3 mi Variable 2.3 mph - N/A   Mostly Cloudy